| time (UTC) | temp F | wind direction | speed MPH | gust MPH | rain 1hr in | rain 24hr in | rain mn in | humidity % | barometer mb |
| 20260905162037 | 73 | 328 | 2.0 | 7.0 | 0.00 | 0.00 | 0.00 | 86 | 1015.3 |
| 20260905161536 | 73 | 28 | 2.0 | 6.0 | 0.00 | 0.00 | 0.00 | 85 | 1015.4 |
| 20260905161027 | 73 | 314 | 3.0 | 8.0 | 0.00 | 0.00 | 0.00 | 86 | 1015.3 |
| 20260905160528 | 73 | 30 | 2.0 | 8.0 | 0.00 | 0.00 | 0.00 | 86 | 1015.2 |
| 20260905160041 | 73 | 15 | 2.0 | 8.0 | 0.00 | 0.00 | 0.00 | 85 | 1015.1 |
| 20260905155528 | 73 | 13 | 2.0 | 5.0 | 0.00 | 0.00 | 0.00 | 84 | 1015.1 |
| 20260905155035 | 73 | 53 | 2.0 | 5.0 | 0.00 | 0.00 | 0.00 | 85 | 1015.1 |
| 20260905154524 | 73 | 46 | 2.0 | 5.0 | 0.00 | 0.00 | 0.00 | 84 | 1015.1 |
| 20260905154024 | 73 | 1 | 2.0 | 7.0 | 0.00 | 0.00 | 0.00 | 84 | 1015.2 |
| 20260905153555 | 73 | 344 | 2.0 | 7.0 | 0.00 | 0.00 | 0.00 | 84 | 1015.1 |
| 20260905153050 | 73 | 8 | 2.0 | 7.0 | 0.00 | 0.00 | 0.00 | 84 | 1015.0 |
| 20260905152603 | 73 | 127 | 2.0 | 7.0 | 0.00 | 0.00 | 0.00 | 85 | 1015.1 |
| 20260905152031 | 73 | 46 | 1.0 | 5.0 | 0.00 | 0.00 | 0.00 | 84 | 1015.1 |
| 20260905151537 | 73 | 1 | 1.0 | 6.0 | 0.00 | 0.00 | 0.00 | 85 | 1015.0 |
| 20260905151029 | 73 | 340 | 2.0 | 6.0 | 0.00 | 0.00 | 0.00 | 85 | 1015.0 |
| 20260905150555 | 73 | 20 | 2.0 | 5.0 | 0.00 | 0.00 | 0.00 | 85 | 1015.0 |
| 20260905150049 | 73 | 340 | 2.0 | 5.0 | 0.00 | 0.00 | 0.00 | 85 | 1014.9 |
| 20260905145535 | 73 | 35 | 2.0 | 5.0 | 0.00 | 0.00 | 0.00 | 85 | 1014.9 |
| 20260905144526 | 73 | 28 | 1.0 | 4.0 | 0.00 | 0.00 | 0.00 | 86 | 1014.8 |
| 20260905144039 | 73 | 1 | 2.0 | 6.0 | 0.00 | 0.00 | 0.00 | 85 | 1014.8 |
| 20260905143525 | 73 | 16 | 2.0 | 7.0 | 0.00 | 0.00 | 0.00 | 86 | 1014.8 |
| 20260905143037 | 73 | 46 | 2.0 | 7.0 | 0.00 | 0.00 | 0.00 | 85 | 1014.9 |
| 20260905142547 | 73 | 98 | 2.0 | 5.0 | 0.00 | 0.00 | 0.00 | 86 | 1014.8 |
| 20260905142039 | 73 | 39 | 1.0 | 5.0 | 0.00 | 0.00 | 0.00 | 86 | 1014.7 |
| 20260905141541 | 73 | 20 | 2.0 | 6.0 | 0.00 | 0.00 | 0.00 | 86 | 1014.7 |
| 20260905141031 | 73 | 68 | 2.0 | 7.0 | 0.00 | 0.00 | 0.00 | 86 | 1014.7 |
| 20260905140537 | 72 | 89 | 3.0 | 7.0 | 0.00 | 0.00 | 0.00 | 86 | 1014.7 |
| 20260905140028 | 72 | 89 | 2.0 | 6.0 | 0.00 | 0.00 | 0.00 | 86 | 1014.7 |
| 20260905135531 | 72 | 46 | 2.0 | 6.0 | 0.00 | 0.00 | 0.00 | 86 | 1014.8 |
| 20260905135026 | 72 | 32 | 2.0 | 6.0 | 0.00 | 0.00 | 0.00 | 86 | 1014.8 |
| 20260905134535 | 72 | 76 | 2.0 | 6.0 | 0.00 | 0.00 | 0.00 | 87 | 1014.7 |
| 20260905134040 | 72 | 39 | 2.0 | 7.0 | 0.00 | 0.00 | 0.00 | 87 | 1014.6 |
| 20260905133529 | 72 | 13 | 2.0 | 7.0 | 0.00 | 0.00 | 0.00 | 87 | 1014.7 |
| 20260905133104 | 72 | 20 | 2.0 | 7.0 | 0.00 | 0.00 | 0.00 | 87 | 1014.7 |
| 20260905132530 | 71 | 105 | 2.0 | 7.0 | 0.00 | 0.00 | 0.00 | 87 | 1014.7 |
| 20260905132039 | 71 | 42 | 2.0 | 7.0 | 0.00 | 0.00 | 0.00 | 87 | 1014.6 |
| 20260905131525 | 71 | 46 | 2.0 | 9.0 | 0.00 | 0.00 | 0.00 | 87 | 1014.7 |
| 20260905131101 | 71 | 1 | 2.0 | 9.0 | 0.00 | 0.00 | 0.00 | 87 | 1014.6 |
| 20260905130530 | 71 | 105 | 2.0 | 5.0 | 0.00 | 0.00 | 0.00 | 87 | 1014.6 |
| 20260905130043 | 71 | 68 | 3.0 | 7.0 | 0.00 | 0.00 | 0.00 | 87 | 1014.5 |
| 20260905125529 | 71 | 25 | 2.0 | 7.0 | 0.00 | 0.00 | 0.00 | 87 | 1014.6 |
| 20260905125102 | 71 | 60 | 2.0 | 6.0 | 0.00 | 0.00 | 0.00 | 88 | 1014.6 |
| 20260905124554 | 71 | 108 | 2.0 | 5.0 | 0.00 | 0.00 | 0.00 | 87 | 1014.6 |
| 20260905124049 | 71 | 35 | 2.0 | 6.0 | 0.00 | 0.00 | 0.00 | 87 | 1014.5 |
| 20260905123533 | 70 | 103 | 3.0 | 5.0 | 0.00 | 0.00 | 0.00 | 88 | 1014.5 |
| 20260905123043 | 70 | 327 | 2.0 | 6.0 | 0.00 | 0.00 | 0.00 | 89 | 1014.6 |
| 20260905122531 | 70 | 1 | 1.0 | 8.0 | 0.00 | 0.00 | 0.00 | 89 | 1014.5 |
| 20260905122042 | 69 | 52 | 2.0 | 8.0 | 0.00 | 0.00 | 0.00 | 90 | 1014.4 |
| 20260905121550 | 69 | 28 | 2.0 | 7.0 | 0.00 | 0.00 | 0.00 | 90 | 1014.5 |
| 20260905121038 | 69 | 35 | 2.0 | 7.0 | 0.00 | 0.00 | 0.00 | 89 | 1014.4 |
| 20260905120553 | 69 | 110 | 2.0 | 6.0 | 0.00 | 0.00 | 0.00 | 89 | 1014.3 |
| 20260905120038 | 69 | 51 | 2.0 | 5.0 | 0.00 | 0.00 | 0.00 | 89 | 1014.4 |
| 20260905115528 | 69 | 127 | 1.0 | 6.0 | 0.00 | 0.00 | 0.00 | 89 | 1014.4 |
| 20260905115040 | 69 | 23 | 2.0 | 6.0 | 0.00 | 0.00 | 0.00 | 89 | 1014.4 |
| 20260905114528 | 69 | 46 | 2.0 | 6.0 | 0.00 | 0.00 | 0.00 | 89 | 1014.4 |
| 20260905114035 | 69 | 81 | 2.0 | 6.0 | 0.00 | 0.00 | 0.00 | 89 | 1014.4 |
| 20260905113540 | 69 | 1 | 1.0 | 6.0 | 0.00 | 0.00 | 0.00 | 88 | 1014.2 |
| 20260905113035 | 69 | 15 | 2.0 | 5.0 | 0.00 | 0.00 | 0.00 | 88 | 1014.0 |
| 20260905112523 | 69 | 100 | 1.0 | 7.0 | 0.00 | 0.00 | 0.00 | 88 | 1014.1 |
| 20260905112055 | 69 | 89 | 2.0 | 7.0 | 0.00 | 0.00 | 0.00 | 88 | 1014.1 |
| 20260905111524 | 69 | 53 | 2.0 | 7.0 | 0.00 | 0.00 | 0.00 | 88 | 1014.0 |
| 20260905111037 | 69 | 46 | 2.0 | 7.0 | 0.00 | 0.00 | 0.00 | 87 | 1014.0 |
| 20260905110541 | 69 | 89 | 2.0 | 6.0 | 0.00 | 0.00 | 0.00 | 87 | 1014.0 |
| 20260905110035 | 69 | 28 | 2.0 | 6.0 | 0.00 | 0.00 | 0.00 | 87 | 1014.1 |
| 20260905105522 | 69 | 59 | 1.0 | 6.0 | 0.00 | 0.00 | 0.00 | 87 | 1014.2 |
| 20260905105031 | 69 | 39 | 2.0 | 6.0 | 0.00 | 0.00 | 0.00 | 86 | 1014.2 |
| 20260905104539 | 69 | 35 | 1.0 | 4.0 | 0.00 | 0.00 | 0.00 | 86 | 1014.1 |
| 20260905104031 | 69 | 35 | 1.0 | 5.0 | 0.00 | 0.00 | 0.00 | 86 | 1014.1 |
| 20260905103540 | 69 | 98 | 2.0 | 8.0 | 0.00 | 0.00 | 0.00 | 86 | 1014.0 |
| 20260905103053 | 69 | 63 | 3.0 | 8.0 | 0.00 | 0.00 | 0.00 | 86 | 1014.0 |
| 20260905102541 | 69 | 98 | 2.0 | 8.0 | 0.00 | 0.00 | 0.00 | 86 | 1014.0 |
| 20260905102057 | 69 | 179 | 2.0 | 6.0 | 0.00 | 0.00 | 0.00 | 86 | 1014.1 |
| 20260905101524 | 69 | 103 | 2.0 | 9.0 | 0.00 | 0.00 | 0.00 | 85 | 1014.0 |
| 20260905101104 | 69 | 105 | 4.0 | 9.0 | 0.00 | 0.00 | 0.00 | 85 | 1013.9 |
| 20260905100530 | 69 | 28 | 3.0 | 7.0 | 0.00 | 0.00 | 0.00 | 85 | 1014.0 |
| 20260905100042 | 69 | 13 | 2.0 | 7.0 | 0.00 | 0.00 | 0.00 | 85 | 1014.0 |
| 20260905095553 | 69 | 28 | 2.0 | 7.0 | 0.00 | 0.00 | 0.00 | 85 | 1014.1 |
| 20260905095042 | 69 | 20 | 1.0 | 6.0 | 0.00 | 0.00 | 0.00 | 85 | 1014.1 |
| 20260905094036 | 69 | 13 | 2.0 | 9.0 | 0.00 | 0.00 | 0.00 | 85 | 1014.1 |
| 20260905093526 | 69 | 63 | 1.0 | 7.0 | 0.00 | 0.00 | 0.00 | 85 | 1014.1 |
| 20260905093036 | 69 | 39 | 2.0 | 6.0 | 0.00 | 0.00 | 0.00 | 85 | 1014.0 |
| 20260905092532 | 69 | 117 | 2.0 | 7.0 | 0.00 | 0.00 | 0.00 | 85 | 1014.0 |
| 20260905092042 | 69 | 51 | 3.0 | 7.0 | 0.00 | 0.00 | 0.00 | 85 | 1013.9 |
| 20260905091532 | 69 | 46 | 2.0 | 8.0 | 0.00 | 0.00 | 0.00 | 85 | 1014.0 |
| 20260905091047 | 69 | 51 | 2.0 | 8.0 | 0.00 | 0.00 | 0.00 | 85 | 1013.9 |
| 20260905090533 | 69 | 53 | 2.0 | 9.0 | 0.00 | 0.00 | 0.00 | 86 | 1013.9 |
| 20260905090026 | 69 | 89 | 2.0 | 9.0 | 0.00 | 0.00 | 0.00 | 86 | 1013.9 |
| 20260905085532 | 69 | 56 | 2.0 | 6.0 | 0.00 | 0.00 | 0.00 | 86 | 1013.9 |
| 20260905085043 | 69 | 46 | 3.0 | 6.0 | 0.00 | 0.00 | 0.00 | 86 | 1013.9 |
| 20260905084530 | 69 | 1 | 3.0 | 6.0 | 0.00 | 0.00 | 0.00 | 86 | 1013.8 |
| 20260905084025 | 69 | 56 | 2.0 | 8.0 | 0.00 | 0.00 | 0.00 | 86 | 1013.8 |
| 20260905083537 | 69 | 63 | 2.0 | 8.0 | 0.00 | 0.00 | 0.00 | 86 | 1013.9 |
| 20260905083053 | 69 | 63 | 2.0 | 6.0 | 0.00 | 0.00 | 0.00 | 86 | 1013.8 |
| 20260905082538 | 69 | 20 | 2.0 | 5.0 | 0.00 | 0.00 | 0.00 | 86 | 1013.8 |
| 20260905082031 | 69 | 28 | 2.0 | 9.0 | 0.00 | 0.00 | 0.00 | 87 | 1013.8 |
| 20260905081539 | 69 | 49 | 3.0 | 9.0 | 0.00 | 0.00 | 0.00 | 87 | 1013.8 |
| 20260905081031 | 69 | 46 | 1.0 | 9.0 | 0.00 | 0.00 | 0.00 | 87 | 1013.8 |
| 20260905080535 | 69 | 56 | 1.0 | 7.0 | 0.00 | 0.00 | 0.00 | 86 | 1013.8 |
| 20260905080038 | 69 | 74 | 2.0 | 6.0 | 0.00 | 0.00 | 0.00 | 87 | 1013.8 |
| 20260905075525 | 69 | 51 | 1.0 | 6.0 | 0.00 | 0.00 | 0.00 | 87 | 1013.7 |
| 20260905075034 | 69 | 39 | 2.0 | 6.0 | 0.00 | 0.00 | 0.00 | 87 | 1013.5 |
| 20260905074524 | 69 | 49 | 2.0 | 8.0 | 0.00 | 0.00 | 0.00 | 86 | 1013.5 |
| 20260905074034 | 69 | 76 | 2.0 | 8.0 | 0.00 | 0.00 | 0.00 | 86 | 1013.4 |
| 20260905073537 | 69 | 53 | 1.0 | 5.0 | 0.00 | 0.00 | 0.00 | 86 | 1013.3 |
| 20260905073030 | 69 | 179 | 2.0 | 4.0 | 0.00 | 0.00 | 0.00 | 85 | 1013.3 |
| 20260905072538 | 69 | 89 | 1.0 | 3.0 | 0.00 | 0.00 | 0.00 | 85 | 1013.3 |
| 20260905072052 | 69 | 35 | 1.0 | 8.0 | 0.00 | 0.00 | 0.00 | 85 | 1013.3 |
| 20260905071602 | 69 | 84 | 2.0 | 5.0 | 0.00 | 0.00 | 0.00 | 85 | 1013.4 |
| 20260905071042 | 69 | 89 | 2.0 | 6.0 | 0.00 | 0.00 | 0.00 | 86 | 1013.4 |
| 20260905070531 | 69 | 107 | 2.0 | 6.0 | 0.00 | 0.00 | 0.00 | 86 | 1013.4 |
| 20260905070038 | 69 | 28 | 2.0 | 6.0 | 0.00 | 0.00 | 0.00 | 86 | 1013.4 |
| 20260905065528 | 69 | 72 | 2.0 | 8.0 | 0.00 | 0.00 | 0.00 | 87 | 1013.4 |
| 20260905065040 | 69 | 46 | 4.0 | 8.0 | 0.00 | 0.00 | 0.00 | 88 | 1013.4 |
| 20260905064526 | 69 | 56 | 2.0 | 6.0 | 0.00 | 0.00 | 0.00 | 88 | 1013.5 |
| 20260905064037 | 69 | 46 | 1.0 | 7.0 | 0.00 | 0.00 | 0.00 | 88 | 1013.6 |
| 20260905063551 | 69 | 46 | 1.0 | 7.0 | 0.00 | 0.00 | 0.00 | 88 | 1013.6 |
| 20260905063043 | 69 | 28 | 1.0 | 6.0 | 0.00 | 0.00 | 0.00 | 89 | 1013.6 |
| 20260905062525 | 69 | 39 | 2.0 | 6.0 | 0.00 | 0.00 | 0.00 | 89 | 1013.7 |
| 20260905062037 | 69 | 63 | 1.0 | 4.0 | 0.00 | 0.00 | 0.00 | 88 | 1013.8 |
| 20260905061524 | 69 | 117 | 1.0 | 5.0 | 0.00 | 0.00 | 0.00 | 88 | 1013.8 |
| 20260905061032 | 69 | 63 | 1.0 | 5.0 | 0.00 | 0.00 | 0.00 | 88 | 1013.8 |
| 20260905060541 | 69 | 46 | 1.0 | 4.0 | 0.00 | 0.00 | 0.00 | 88 | 1013.8 |
| 20260905060042 | 69 | 46 | 0.0 | 2.0 | 0.00 | 0.00 | 0.00 | 88 | 1013.9 |
| 20260905055527 | 69 | 46 | 0.0 | 3.0 | 0.00 | 0.00 | 0.00 | 88 | 1013.8 |
| 20260905055039 | 69 | 107 | 1.0 | 5.0 | 0.00 | 0.00 | 0.00 | 87 | 1013.7 |
| 20260905054527 | 68 | 68 | 1.0 | 5.0 | 0.00 | 0.00 | 0.00 | 87 | 1013.7 |
| 20260905054042 | 68 | 89 | 1.0 | 4.0 | 0.00 | 0.00 | 0.00 | 87 | 1013.7 |
| 20260905053528 | 68 | 56 | 1.0 | 3.0 | 0.00 | 0.00 | 0.00 | 87 | 1013.7 |
| 20260905053024 | 68 | 63 | 1.0 | 2.0 | 0.00 | 0.00 | 0.00 | 87 | 1013.7 |
| 20260905052533 | 68 | 46 | 1.0 | 5.0 | 0.00 | 0.00 | 0.00 | 87 | 1013.8 |
| 20260905052043 | 69 | 46 | 1.0 | 5.0 | 0.00 | 0.00 | 0.00 | 87 | 1013.7 |
| 20260905051528 | 69 | 56 | 1.0 | 3.0 | 0.00 | 0.00 | 0.00 | 87 | 1013.7 |
| 20260905051040 | 69 | 46 | 1.0 | 2.0 | 0.00 | 0.00 | 0.00 | 87 | 1013.7 |
| 20260905050529 | 69 | 46 | 1.0 | 2.0 | 0.00 | 0.00 | 0.00 | 87 | 1013.8 |
| 20260905050037 | 69 | 46 | 1.0 | 2.0 | 0.00 | 0.00 | 0.00 | 87 | 1013.8 |
| 20260905045550 | 69 | 1 | 0.0 | 2.0 | 0.00 | 0.00 | 0.00 | 87 | 1013.7 |
| 20260905045039 | 69 | 89 | 1.0 | 3.0 | 0.00 | 0.00 | 0.00 | 87 | 1013.5 |
| 20260905044528 | 69 | 1 | 1.0 | 5.0 | 0.00 | 0.00 | 0.00 | 86 | 1013.6 |
| 20260905044035 | 69 | 56 | 1.0 | 7.0 | 0.00 | 0.00 | 0.00 | 87 | 1013.5 |
| 20260905043541 | 69 | 59 | 3.0 | 7.0 | 0.00 | 0.00 | 0.00 | 87 | 1013.4 |
| 20260905043034 | 69 | 66 | 4.0 | 9.0 | 0.00 | 0.00 | 0.00 | 87 | 1013.4 |
| 20260905042522 | 69 | 84 | 3.0 | 10.0 | 0.00 | 0.00 | 0.00 | 87 | 1013.5 |
| 20260905042032 | 69 | 89 | 4.0 | 10.0 | 0.00 | 0.00 | 0.00 | 87 | 1013.5 |
| 20260905041522 | 69 | 103 | 3.0 | 6.0 | 0.00 | 0.00 | 0.00 | 87 | 1013.5 |
| 20260905041033 | 69 | 41 | 3.0 | 6.0 | 0.00 | 0.00 | 0.00 | 87 | 1013.6 |
| 20260905040048 | 69 | 79 | 1.0 | 8.0 | 0.00 | 0.00 | 0.00 | 86 | 1013.7 |
| 20260905035528 | 69 | 89 | 3.0 | 8.0 | 0.00 | 0.00 | 0.00 | 86 | 1013.7 |
| 20260905035037 | 69 | 94 | 4.0 | 8.0 | 0.00 | 0.00 | 0.00 | 86 | 1013.8 |
| 20260905034525 | 69 | 46 | 2.0 | 8.0 | 0.00 | 0.00 | 0.00 | 86 | 1013.9 |
| 20260905034039 | 69 | 37 | 3.0 | 8.0 | 0.00 | 0.00 | 0.00 | 86 | 1013.9 |
| 20260905033529 | 69 | 89 | 3.0 | 8.0 | 0.00 | 0.00 | 0.00 | 86 | 1013.9 |
| 20260905033039 | 69 | 63 | 3.0 | 7.0 | 0.00 | 0.00 | 0.00 | 86 | 1014.0 |
| 20260905032526 | 69 | 108 | 2.0 | 6.0 | 0.00 | 0.00 | 0.00 | 86 | 1013.9 |
| 20260905032040 | 69 | 46 | 3.0 | 6.0 | 0.00 | 0.00 | 0.00 | 86 | 1014.0 |
| 20260905031611 | 70 | 110 | 2.0 | 5.0 | 0.00 | 0.00 | 0.00 | 85 | 1014.1 |
| 20260905031053 | 70 | 68 | 2.0 | 6.0 | 0.00 | 0.00 | 0.00 | 85 | 1014.1 |
| 20260905030540 | 70 | 28 | 1.0 | 6.0 | 0.00 | 0.00 | 0.00 | 85 | 1014.1 |
| 20260905030057 | 70 | 110 | 2.0 | 5.0 | 0.00 | 0.00 | 0.00 | 85 | 1014.2 |
| 20260905025558 | 70 | 72 | 2.0 | 4.0 | 0.00 | 0.00 | 0.00 | 85 | 1014.3 |
| 20260905025031 | 70 | 56 | 0.0 | 5.0 | 0.00 | 0.00 | 0.00 | 85 | 1014.3 |
| 20260905024540 | 70 | 98 | 3.0 | 5.0 | 0.00 | 0.00 | 0.00 | 85 | 1014.3 |
| 20260905024030 | 70 | 89 | 0.0 | 6.0 | 0.00 | 0.00 | 0.00 | 85 | 1014.5 |
| 20260905023540 | 70 | 115 | 5.0 | 6.0 | 0.00 | 0.00 | 0.00 | 84 | 1014.2 |
| 20260905023058 | 70 | 98 | 3.0 | 5.0 | 0.00 | 0.00 | 0.00 | 84 | 1014.3 |
| 20260905022522 | 70 | 46 | 1.0 | 7.0 | 0.00 | 0.00 | 0.00 | 85 | 1014.3 |
| 20260905022034 | 70 | 81 | 2.0 | 7.0 | 0.00 | 0.00 | 0.00 | 85 | 1014.2 |
| 20260905021541 | 70 | 68 | 4.0 | 7.0 | 0.00 | 0.00 | 0.00 | 85 | 1014.1 |
| 20260905021032 | 71 | 98 | 4.0 | 7.0 | 0.00 | 0.00 | 0.00 | 85 | 1014.3 |
| 20260905020539 | 71 | 63 | 3.0 | 7.0 | 0.00 | 0.00 | 0.00 | 85 | 1014.4 |
| 20260905020032 | 71 | 95 | 3.0 | 7.0 | 0.00 | 0.00 | 0.00 | 84 | 1014.2 |
| 20260905015541 | 71 | 46 | 2.0 | 6.0 | 0.00 | 0.00 | 0.00 | 84 | 1014.3 |
| 20260905015032 | 71 | 89 | 2.0 | 8.0 | 0.00 | 0.00 | 0.00 | 84 | 1014.4 |
| 20260905014535 | 71 | 89 | 4.0 | 8.0 | 0.00 | 0.00 | 0.00 | 84 | 1014.4 |
| 20260905014029 | 71 | 25 | 2.0 | 8.0 | 0.00 | 0.00 | 0.00 | 84 | 1014.4 |
| 20260905013537 | 71 | 46 | 1.0 | 7.0 | 0.00 | 0.00 | 0.00 | 83 | 1014.4 |
| 20260905013036 | 71 | 39 | 2.0 | 7.0 | 0.00 | 0.00 | 0.00 | 83 | 1014.4 |
| 20260905012526 | 71 | 89 | 1.0 | 8.0 | 0.00 | 0.00 | 0.00 | 83 | 1014.4 |
| 20260905012038 | 71 | 76 | 2.0 | 8.0 | 0.00 | 0.00 | 0.00 | 83 | 1014.2 |
| 20260905011527 | 71 | 84 | 3.0 | 7.0 | 0.00 | 0.00 | 0.00 | 83 | 1014.2 |
| 20260905011041 | 71 | 89 | 1.0 | 3.0 | 0.00 | 0.00 | 0.00 | 83 | 1014.2 |
| 20260905010531 | 71 | 179 | 1.0 | 5.0 | 0.00 | 0.00 | 0.00 | 82 | 1014.1 |
| 20260905010027 | 71 | 46 | 2.0 | 6.0 | 0.00 | 0.00 | 0.00 | 82 | 1014.1 |
| 20260905005522 | 71 | 28 | 2.0 | 9.0 | 0.00 | 0.00 | 0.00 | 81 | 1013.9 |
| 20260905005034 | 71 | 96 | 3.0 | 9.0 | 0.00 | 0.00 | 0.00 | 81 | 1013.8 |
| 20260905004548 | 71 | 68 | 4.0 | 9.0 | 0.00 | 0.00 | 0.00 | 80 | 1013.7 |
| 20260905004035 | 71 | 68 | 3.0 | 8.0 | 0.00 | 0.00 | 0.00 | 80 | 1013.8 |
| 20260905003526 | 71 | 72 | 2.0 | 8.0 | 0.00 | 0.00 | 0.00 | 80 | 1013.8 |
| 20260905003051 | 71 | 79 | 2.0 | 8.0 | 0.00 | 0.00 | 0.00 | 80 | 1013.8 |
| 20260905002601 | 71 | 70 | 2.0 | 8.0 | 0.00 | 0.00 | 0.00 | 79 | 1013.7 |
| 20260905002037 | 71 | 46 | 3.0 | 7.0 | 0.00 | 0.00 | 0.00 | 79 | 1013.7 |
| 20260905001528 | 71 | 82 | 3.0 | 7.0 | 0.00 | 0.00 | 0.00 | 79 | 1013.8 |
| 20260905001037 | 71 | 53 | 1.0 | 4.0 | 0.00 | 0.00 | 0.00 | 79 | 1013.8 |
| 20260905000528 | 71 | 46 | 2.0 | 7.0 | 0.00 | 0.00 | 0.00 | 79 | 1013.7 |
| 20260905000042 | 71 | 63 | 4.0 | 7.0 | 0.00 | 0.00 | 0.00 | 79 | 1013.7 |
| 20260904235530 | 71 | 83 | 3.0 | 8.0 | 0.00 | 0.00 | 0.00 | 78 | 1013.7 |
| 20260904235039 | 71 | 113 | 3.0 | 8.0 | 0.00 | 0.00 | 0.00 | 78 | 1013.5 |
| 20260904234529 | 72 | 100 | 3.0 | 7.0 | 0.00 | 0.00 | 0.00 | 78 | 1013.4 |
| 20260904234041 | 72 | 53 | 3.0 | 8.0 | 0.00 | 0.00 | 0.00 | 78 | 1013.4 |
| 20260904233552 | 72 | 103 | 5.0 | 8.0 | 0.00 | 0.00 | 0.00 | 78 | 1013.4 |
| 20260904233040 | 72 | 86 | 4.0 | 9.0 | 0.00 | 0.00 | 0.00 | 78 | 1013.3 |
| 20260904232529 | 72 | 95 | 4.0 | 9.0 | 0.00 | 0.00 | 0.00 | 78 | 1013.2 |
| 20260904232042 | 72 | 101 | 3.0 | 9.0 | 0.00 | 0.00 | 0.00 | 78 | 1013.3 |
| 20260904231526 | 72 | 46 | 2.0 | 9.0 | 0.00 | 0.00 | 0.00 | 77 | 1013.1 |
| 20260904231039 | 72 | 95 | 3.0 | 9.0 | 0.00 | 0.00 | 0.00 | 77 | 1013.0 |
| 20260904230527 | 72 | 102 | 3.0 | 9.0 | 0.00 | 0.00 | 0.00 | 78 | 1013.0 |
| 20260904230040 | 72 | 35 | 4.0 | 9.0 | 0.00 | 0.00 | 0.00 | 77 | 1012.9 |
| 20260904225529 | 72 | 117 | 3.0 | 8.0 | 0.00 | 0.00 | 0.00 | 77 | 1013.0 |
| 20260904225040 | 72 | 46 | 2.0 | 8.0 | 0.00 | 0.00 | 0.00 | 77 | 1013.0 |
| 20260904224529 | 72 | 56 | 2.0 | 7.0 | 0.00 | 0.00 | 0.00 | 77 | 1013.1 |
| 20260904224040 | 72 | 59 | 3.0 | 7.0 | 0.00 | 0.00 | 0.00 | 77 | 1013.1 |
| 20260904223528 | 72 | 84 | 3.0 | 7.0 | 0.00 | 0.00 | 0.00 | 78 | 1013.0 |
| 20260904223040 | 72 | 89 | 2.0 | 7.0 | 0.00 | 0.00 | 0.00 | 78 | 1013.0 |
| 20260904222530 | 72 | 74 | 2.0 | 7.0 | 0.00 | 0.00 | 0.00 | 78 | 1013.0 |
| 20260904222038 | 72 | 20 | 2.0 | 10.0 | 0.00 | 0.00 | 0.00 | 78 | 1013.0 |
| 20260904221527 | 72 | 51 | 4.0 | 10.0 | 0.00 | 0.00 | 0.00 | 78 | 1013.0 |
| 20260904221040 | 72 | 35 | 2.0 | 6.0 | 0.00 | 0.00 | 0.00 | 78 | 1013.0 |
| 20260904220535 | 72 | 54 | 2.0 | 8.0 | 0.00 | 0.00 | 0.00 | 79 | 1012.9 |
| 20260904220030 | 72 | 21 | 3.0 | 8.0 | 0.00 | 0.00 | 0.00 | 80 | 1013.0 |
| 20260904215538 | 72 | 76 | 2.0 | 6.0 | 0.00 | 0.00 | 0.00 | 80 | 1012.9 |
| 20260904215035 | 72 | 13 | 1.0 | 7.0 | 0.00 | 0.00 | 0.00 | 81 | 1012.9 |
| 20260904214524 | 73 | 314 | 2.0 | 7.0 | 0.00 | 0.00 | 0.00 | 83 | 1012.8 |
| 20260904214059 | 73 | 32 | 1.0 | 6.0 | 0.00 | 0.00 | 0.00 | 84 | 1012.8 |
| 20260904213524 | 73 | 117 | 2.0 | 8.0 | 0.00 | 0.00 | 0.00 | 84 | 1012.6 |
| 20260904213036 | 73 | 72 | 2.0 | 8.0 | 0.00 | 0.00 | 0.00 | 84 | 1012.7 |
| 20260904212544 | 73 | 89 | 2.0 | 6.0 | 0.00 | 0.00 | 0.00 | 84 | 1012.7 |
| 20260904212058 | 73 | 23 | 1.0 | 6.0 | 0.00 | 0.00 | 0.00 | 84 | 1012.7 |
| 20260904211527 | 73 | 117 | 2.0 | 8.0 | 0.00 | 0.00 | 0.00 | 84 | 1012.7 |
| 20260904211040 | 73 | 1 | 1.0 | 8.0 | 0.00 | 0.00 | 0.00 | 83 | 1012.7 |
| 20260904210528 | 73 | 63 | 2.0 | 5.0 | 0.00 | 0.00 | 0.00 | 83 | 1012.6 |
| 20260904210035 | 73 | 105 | 2.0 | 5.0 | 0.00 | 0.00 | 0.00 | 84 | 1012.6 |
| 20260904205525 | 74 | 46 | 1.0 | 5.0 | 0.00 | 0.02 | 0.00 | 84 | 1012.6 |
| 20260904205040 | 74 | 39 | 2.0 | 5.0 | 0.00 | 0.02 | 0.00 | 84 | 1012.5 |
| 20260904204527 | 74 | 51 | 2.0 | 5.0 | 0.00 | 0.02 | 0.00 | 84 | 1012.5 |
| 20260904204028 | 74 | 20 | 2.0 | 5.0 | 0.00 | 0.02 | 0.00 | 84 | 1012.6 |
| 20260904203539 | 74 | 20 | 2.0 | 7.0 | 0.00 | 0.02 | 0.00 | 84 | 1012.5 |
| 20260904203027 | 74 | 102 | 2.0 | 7.0 | 0.00 | 0.02 | 0.00 | 84 | 1012.5 |
| 20260904202532 | 74 | 46 | 3.0 | 8.0 | 0.00 | 0.02 | 0.00 | 84 | 1012.5 |
| 20260904202024 | 74 | 46 | 3.0 | 8.0 | 0.00 | 0.02 | 0.00 | 84 | 1012.5 |
| 20260904201534 | 74 | 74 | 3.0 | 8.0 | 0.00 | 0.02 | 0.00 | 84 | 1012.5 |
| 20260904201042 | 74 | 56 | 2.0 | 6.0 | 0.00 | 0.02 | 0.00 | 84 | 1012.6 |
| 20260904200531 | 74 | 98 | 2.0 | 7.0 | 0.00 | 0.02 | 0.00 | 85 | 1012.6 |
| 20260904200043 | 74 | 89 | 2.0 | 10.0 | 0.00 | 0.02 | 0.00 | 85 | 1012.7 |
| 20260904195530 | 74 | 68 | 3.0 | 10.0 | 0.00 | 0.17 | 0.00 | 84 | 1012.6 |
| 20260904195039 | 74 | 56 | 3.0 | 7.0 | 0.00 | 0.17 | 0.00 | 84 | 1012.7 |
| 20260904194527 | 74 | 65 | 2.0 | 9.0 | 0.00 | 0.17 | 0.00 | 84 | 1012.7 |
| 20260904194041 | 74 | 72 | 2.0 | 7.0 | 0.00 | 0.17 | 0.00 | 85 | 1012.7 |
| 20260904193101 | 74 | 23 | 2.0 | 7.0 | 0.00 | 0.17 | 0.00 | 85 | 1012.7 |
| 20260904192528 | 74 | 89 | 2.0 | 7.0 | 0.00 | 0.17 | 0.00 | 86 | 1012.8 |
| 20260904192103 | 74 | 46 | 2.0 | 9.0 | 0.00 | 0.17 | 0.00 | 86 | 1012.7 |
| 20260904191532 | 74 | 13 | 3.0 | 9.0 | 0.00 | 0.17 | 0.00 | 85 | 1012.8 |
| 20260904191024 | 74 | 89 | 2.0 | 7.0 | 0.00 | 0.17 | 0.00 | 85 | 1012.7 |
| 20260904190548 | 75 | 1 | 2.0 | 10.0 | 0.00 | 0.17 | 0.00 | 85 | 1012.6 |
| 20260904190043 | 75 | 70 | 3.0 | 9.0 | 0.00 | 0.17 | 0.00 | 86 | 1012.6 |
| 20260904185534 | 75 | 179 | 2.0 | 5.0 | 0.00 | 0.41 | 0.00 | 85 | 1012.6 |
| 20260904185030 | 75 | 16 | 2.0 | 5.0 | 0.00 | 0.41 | 0.00 | 86 | 1012.6 |
| 20260904184539 | 75 | 56 | 2.0 | 6.0 | 0.00 | 0.41 | 0.00 | 86 | 1012.6 |
| 20260904184027 | 76 | 344 | 2.0 | 6.0 | 0.00 | 0.41 | 0.00 | 86 | 1012.6 |
| 20260904183537 | 76 | 341 | 2.0 | 6.0 | 0.00 | 0.41 | 0.00 | 87 | 1012.7 |
| 20260904183026 | 76 | 72 | 2.0 | 5.0 | 0.00 | 0.41 | 0.00 | 88 | 1012.7 |
| 20260904182527 | 76 | 1 | 2.0 | 6.0 | 0.00 | 0.41 | 0.00 | 87 | 1012.7 |
| 20260904182104 | 76 | 20 | 2.0 | 6.0 | 0.00 | 0.41 | 0.00 | 87 | 1012.7 |
| 20260904181529 | 76 | 23 | 2.0 | 7.0 | 0.00 | 0.41 | 0.00 | 87 | 1012.7 |
| 20260904181040 | 76 | 63 | 2.0 | 7.0 | 0.00 | 0.41 | 0.00 | 87 | 1012.8 |
| 20260904180553 | 76 | 46 | 2.0 | 5.0 | 0.00 | 0.41 | 0.00 | 89 | 1012.7 |
| 20260904180043 | 76 | 28 | 2.0 | 5.0 | 0.00 | 0.41 | 0.00 | 89 | 1012.6 |
| 20260904175527 | 75 | 32 | 2.0 | 5.0 | 0.00 | 0.41 | 0.00 | 89 | 1012.6 |
| 20260904175038 | 75 | 28 | 2.0 | 5.0 | 0.00 | 0.41 | 0.00 | 89 | 1012.6 |
| 20260904174527 | 75 | 1 | 2.0 | 4.0 | 0.00 | 0.41 | 0.00 | 89 | 1012.7 |
| 20260904174035 | 75 | 46 | 1.0 | 3.0 | 0.00 | 0.41 | 0.00 | 91 | 1012.6 |
| 20260904173523 | 74 | 1 | 2.0 | 5.0 | 0.00 | 0.41 | 0.00 | 91 | 1012.6 |
| 20260904173045 | 74 | 314 | 3.0 | 5.0 | 0.00 | 0.41 | 0.00 | 92 | 1012.7 |
| 20260904172557 | 74 | 108 | 2.0 | 4.0 | 0.00 | 0.41 | 0.00 | 92 | 1012.8 |
| 20260904172025 | 74 | 107 | 2.0 | 4.0 | 0.00 | 0.41 | 0.00 | 92 | 1012.8 |
| 20260904171600 | 74 | 20 | 1.0 | 6.0 | 0.00 | 0.41 | 0.00 | 92 | 1012.9 |
| 20260904171029 | 74 | 112 | 4.0 | 6.0 | 0.00 | 0.41 | 0.00 | 92 | 1012.9 |
| 20260904170535 | 73 | 102 | 4.0 | 6.0 | 0.00 | 0.41 | 0.00 | 92 | 1013.0 |
| 20260904170026 | 73 | 100 | 2.0 | 5.0 | 0.00 | 0.41 | 0.00 | 92 | 1013.2 |
| 20260904165601 | 73 | 110 | 3.0 | 5.0 | 0.00 | 0.41 | 0.00 | 92 | 1013.3 |
| 20260904165031 | 73 | 79 | 3.0 | 5.0 | 0.00 | 0.41 | 0.00 | 93 | 1013.4 |
| 20260904164537 | 73 | 110 | 3.0 | 5.0 | 0.00 | 0.41 | 0.00 | 93 | 1013.4 |
| 20260904164027 | 73 | 122 | 4.0 | 6.0 | 0.00 | 0.41 | 0.00 | 93 | 1013.4 |
| 20260904163537 | 73 | 127 | 4.0 | 6.0 | 0.00 | 0.41 | 0.00 | 93 | 1013.4 |
| 20260904163052 | 73 | 140 | 4.0 | 7.0 | 0.00 | 0.41 | 0.00 | 93 | 1013.5 |
| 20260904162538 | 72 | 119 | 5.0 | 7.0 | 0.00 | 0.41 | 0.00 | 94 | 1013.6 |